STARLINK-36868, 68120

Orbit data source: Space-Track

STARLINK-36868, 68120 is a payload satellite owned by SpaceX/Seattle (US) in SSO that was launched on Sun, 08 Mar 2026 UTC via an FALCON 9 launch vehicle from the Air Force Western Test Range (AFWTR). Payload-class satellites include a variety of spacecraft equipped with specific instruments for various scientific and technological missions. These include communications satellites like Starlink; space stations such as the ISS; scientific satellites like the Hubble; Earth observation satellites from companies like Planet Labs, Umbra, and HawkEye 360; GPS; miniature CubeSats for education and research; and military/defense satellites.

Loading next visibility...
Identifier
68120, 2026-044V
Orbit
SSO
Country
Flag of USUS
Related business
Manufacturer
SpaceX/Seattle
Mission
Operational spacecraft
Bus & Motor
STARLINK V2MO, Unknown motor
Mass
575 kg wet, ~530 kg dry
Launch date (UTC)
2026-03-08 (2 months ago)
Launch vehicle
FALCON 9
Launch site
Air Force Western Test Range (AFWTR)
Object type
Payload
Rocket body
Debris
Shape & HBR
Unknown shape, 17.7 m
Radar Cross Section
RCS unknown

Expand to show TLE details & history
Last TLE update: 19 hours ago

TLE from 19 hours ago
0 STARLINK-36868
1 68120U 26044V   26134.64150057  .00008640  00000-0  26964-3 0  9995
2 68120  97.2851  95.4689 0002290  90.9412 269.2093 15.33444747 11690
Epoch: 2026-05-14T15:23Z
TLE epoch observation values (Epoch: 2026-05-14T15:23:45.649Z)
Latitude
-0.00002°
Longitude
-7.85555°
Altitude
468.678 km
Speed
7.632 km/s
True Right ascension
06h 21m 52s
True Declination
0° 00' 00"
Sunlit
Object was in daylight at epoch
Visualization orbit readout
Latitude
Unknown
Longitude
Unknown
Altitude
Unknown
Speed
Unknown
Apparent Right ascension
Unknown
Apparent Declination
Unknown
Sunlit
N/A
Visualization observer readout
Local Sidereal Time
19:19:52
Azimuth
Unknown
Elevation
Unknown
Doppler factor
Unknown
Orbital elements
Apogee altitude
464.053 km
Perigee altitude
460.92 km
Semi-major axis
6,840.624 km
Eccentricity
0.00023
Inclination
97.2851°
RAAN
95.4689°
Arg. of periapsis
90.9412°
True anomaly
269.18306°
Mean anomaly
269.2093°
Eccentric anomaly
269.19618°
Mean motion
3.83619 °/min
Orbital period
93.84 mins
BSTAR
0.00026964
Loading maneuver chart data...
Computing Atmospheric mass density...
Loading historical data...
Loading historical data...
Loading historical data...
Loading historical data...
Loading historical data...
Loading historical data...
Loading historical data...

Documentation

Showing up to 5 results
|